User: anonymous   Login
Location: Unspecified
(0.0000°N, 0.0000°E)
Time: 19:31:37
(UTC+00:00)
Language:

Spot 2 - Orbit

View from above orbital plane
View from above orbital plane
View from above satellite
View from above satellite

Ground track
Ground track

The orbit data is extracted from the following two-line orbital elements,

1 20436U 90005A   18017.81658098 +.00000091 +00000-0 +24416-4 0  9992
2 20436 098.6412 302.2335 0144459 308.4189 050.4121 14.66292031464499
Epoch (UTC): 17 January 2018 19:35:52
Eccentricity: 0.0144459
inclination: 98.6412°
perigee height: 571 km
apogee height: 775 km
right ascension of ascending node: 302.2335°
argument of perigee: 308.4189°
revolutions per day: 14.66292031
mean anomaly at epoch: 50.4121°
orbit number at epoch: 46449

The dashed part of the orbit path shows where the satellite is in the earth's shadow,  

DLR